Location: downtown San Diego
(32.7310°N, 117.1990°W)
Time: 21:19:32
(UTC-08:00)

Terra - Pass Details

Date: 19 May 2017
Orbit: 701 x 703 km, 98.2° (Epoch: 17 December)

Event Time Altitude Azimuth Distance (km) Brightness Sun altitude
Rises 12:26:05 0° 356° (N) 3,088 5.0 76.5°
Reaches altitude 10° 12:28:42 10° 342° (NNW) 2,166 4.3 76.7°
Maximum altitude 12:32:25 23° 291° (WNW) 1,459 3.7 76.9°
Drops below altitude 10° 12:36:06 10° 239° (WSW) 2,153 4.6 77.0°
Enters shadow 13:07:53 -63° 188° (S) 12,138 7.6 76.3°
Exits shadow 13:42:27 -47° 32° (NNE) 10,215 7.2 71.9°
